New London, NC

10:28 PM EST on February 21, 2017 (GMT -0500)
Stanly County

Weather History for KVUJ - December, 2012

Change the Weather History Date:

Thursday, December 20, 2012

  Actual Average (KHBI) Record (KHBI)
Temperature  
Mean Temperature 46 °F -  
Max Temperature 60 °F 51 °F 69 °F (1984)
Min Temperature 33 °F 34 °F 10 °F (2004)
Degree Days  
Heating Degree Days 18    
Moisture  
Dew Point 43 °F    
Average Humidity 85    
Maximum Humidity 100    
Minimum Humidity 66    
Precipitation  
Precipitation 0.25 in - - ()
Sea Level Pressure  
Sea Level Pressure 29.93 in    
Wind  
Wind Speed 5 mph (SE)    
Max Wind Speed 22 mph    
Max Gust Speed 33 mph    
Visibility 10 miles    
Events Rain    
Averages and records for this station are not official NWS values.
T = Trace of Precipitation, MM = Missing Value Source: NWS Daily Summary

Daily Weather History Graph

Daily Weather History Graph

Search for Another Location

Airport or City:

Trip Planner

Search our weather history database for the weather conditions in past years. The results will help you decide how hot, cold, wet, or windy it might be!

Date:

Astronomy

Dec. 20, 2012 Rise Set
Actual Time 7:25 AM EST 5:11 PM EST
Civil Twilight 6:57 AM EST 5:39 PM EST
Nautical Twilight 6:25 AM EST 6:11 PM EST
Astronomical Twilight 5:54 AM EST 6:42 PM EST
Moon 12:18 PM EST (12/20) 12:22 AM EST (12/20)
Length of Visible Light 10h 42m
Length of Day
9h 45m
First Quarter, 55% of the Moon is Illuminated
Dec 20
First Quarter
Dec 28
Full
Jan 4
Last Quarter
Jan 11
New
Jan 18
First Quarter

Hourly Weather History & Observations

Time (EST) Temp. Windchill Dew Point Humidity Pressure Visibility Wind Dir Wind Speed Gust Speed Precip Events Conditions
12:15 AM 37.8 °F - 35.8 °F 93% 30.16 in 10.0 mi Calm Calm - N/A   Clear
12:35 AM 36.7 °F - 35.8 °F 97% 30.15 in 10.0 mi Calm Calm - N/A   Clear
12:55 AM 36.7 °F - 35.8 °F 97% 30.16 in 10.0 mi Calm Calm - N/A   Clear
1:15 AM 37.6 °F - 36.1 °F 95% 30.15 in 10.0 mi Calm Calm - N/A   Clear
1:35 AM 36.0 °F - 35.2 °F 97% 30.15 in 10.0 mi Calm Calm - N/A   Clear
1:55 AM 35.6 °F - 35.1 °F 98% 30.16 in 10.0 mi Calm Calm - N/A   Clear
2:15 AM 35.6 °F - 35.6 °F 100% 30.16 in 10.0 mi Calm Calm - N/A   Clear
2:35 AM 34.9 °F - 34.7 °F 99% 30.16 in 10.0 mi Calm Calm - N/A   Clear
2:55 AM 35.2 °F - 34.7 °F 98% 30.16 in 10.0 mi Calm Calm - N/A   Clear
3:15 AM 35.4 °F - 34.7 °F 97% 30.16 in 10.0 mi Calm Calm - N/A   Clear
3:35 AM 34.7 °F - 34.0 °F 97% 30.16 in 10.0 mi Calm Calm - N/A   Clear
3:55 AM 33.8 °F - 33.1 °F 97% 30.15 in 10.0 mi Calm Calm - N/A   Clear
4:15 AM 34.0 °F - 33.6 °F 99% 30.15 in 10.0 mi Calm Calm - N/A   Clear
4:35 AM 33.8 °F - 33.4 °F 99% 30.15 in 10.0 mi Calm Calm - N/A   Clear
4:55 AM 34.3 °F 30.2 °F 34.2 °F 99% 30.15 in 10.0 mi NNE 4.6 mph - N/A   Clear
5:15 AM 38.5 °F 33.4 °F 36.5 °F 93% 30.16 in 10.0 mi NE 6.9 mph - N/A   Clear
5:35 AM 38.3 °F 32.5 °F 35.6 °F 90% 30.16 in 10.0 mi NE 8.1 mph - N/A   Clear
5:55 AM 40.3 °F 34.9 °F 37.2 °F 89% 30.16 in 10.0 mi NE 8.1 mph - N/A   Clear
6:15 AM 41.0 °F 36.4 °F 37.4 °F 87% 30.16 in 10.0 mi NE 6.9 mph - N/A   Clear
6:35 AM 41.2 °F 36.6 °F 37.4 °F 86% 30.15 in 10.0 mi ENE 6.9 mph - N/A   Clear
6:55 AM 41.9 °F 38.2 °F 37.4 °F 84% 30.15 in 10.0 mi ENE 5.8 mph - N/A   Clear
7:15 AM 41.2 °F 36.0 °F 37.8 °F 88% 30.15 in 10.0 mi ENE 8.1 mph - N/A   Clear
7:35 AM 41.5 °F - 37.8 °F 86% 30.14 in 10.0 mi North - - N/A   Clear
7:55 AM 42.8 °F 38.6 °F 38.3 °F 84% 30.13 in 10.0 mi ENE 6.9 mph - N/A   Clear
8:15 AM 43.7 °F 40.3 °F 38.7 °F 82% 30.11 in 10.0 mi East 5.8 mph - N/A   Clear
8:35 AM 44.6 °F 41.4 °F 39.2 °F 81% 30.11 in 10.0 mi East 5.8 mph - N/A   Clear
8:55 AM 44.6 °F 40.7 °F 39.9 °F 84% 30.10 in 10.0 mi ESE 6.9 mph - N/A   Clear
9:15 AM 44.6 °F 40.7 °F 39.7 °F 83% 30.11 in 10.0 mi ESE 6.9 mph - N/A   Clear
9:35 AM 45.0 °F 40.6 °F 40.1 °F 83% 30.10 in 10.0 mi ESE 8.1 mph - N/A   Clear
9:55 AM 46.4 °F 43.5 °F 40.6 °F 80% 30.09 in 10.0 mi East 5.8 mph - N/A   Clear
10:15 AM 46.6 °F - 40.8 °F 80% 30.10 in 10.0 mi ESE 5.8 mph - N/A   Clear
10:35 AM 48.2 °F - 41.7 °F 78% 30.10 in 10.0 mi SE 3.5 mph - N/A   Clear
10:55 AM 50.0 °F - 41.9 °F 74% 30.10 in 10.0 mi SSE 3.5 mph - N/A   Clear
11:15 AM 52.2 °F - 42.6 °F 70% 30.08 in 10.0 mi SSE 9.2 mph - N/A   Clear
11:35 AM 52.3 °F - 42.4 °F 69% 30.06 in 10.0 mi South 6.9 mph - N/A   Clear
11:55 AM 53.1 °F - 42.6 °F 68% 30.05 in 10.0 mi South 9.2 mph - N/A   Scattered Clouds
12:15 PM 52.9 °F - 42.6 °F 68% 30.04 in 10.0 mi South 5.8 mph - N/A   Mostly Cloudy
12:35 PM 52.9 °F - 42.8 °F 69% 30.02 in 10.0 mi South 3.5 mph - N/A   Mostly Cloudy
12:55 PM 52.7 °F - 42.6 °F 69% 29.99 in 10.0 mi SSE 4.6 mph - N/A   Mostly Cloudy
1:15 PM 52.9 °F - 42.8 °F 69% 29.94 in 10.0 mi ESE 3.5 mph - N/A   Overcast
1:35 PM 53.1 °F - 42.8 °F 68% 29.94 in 10.0 mi Calm Calm - N/A   Overcast
1:55 PM 53.4 °F - 43.5 °F 69% 29.93 in 10.0 mi North - - N/A   Overcast
2:15 PM 53.6 °F - 43.5 °F 69% 29.91 in 10.0 mi Calm Calm - N/A   Overcast
2:35 PM 54.5 °F - 43.5 °F 66% 29.87 in 10.0 mi East 5.8 mph - N/A   Light Drizzle
2:55 PM 54.7 °F - 43.3 °F 66% 29.88 in 10.0 mi SE 4.6 mph - N/A   Overcast
3:15 PM 54.9 °F - 44.1 °F 67% 29.86 in 10.0 mi ENE 3.5 mph - N/A Rain Light Rain
3:35 PM 55.0 °F - 44.8 °F 68% 29.84 in 10.0 mi East 4.6 mph - N/A Rain Light Rain
3:55 PM 54.5 °F - 46.4 °F 74% 29.83 in 10.0 mi East 3.5 mph - N/A Rain Light Rain
4:15 PM 54.5 °F - 46.8 °F 75% 29.81 in 10.0 mi ESE 4.6 mph - N/A Rain Light Rain
4:35 PM 53.6 °F - 47.5 °F 80% 29.79 in 10.0 mi ESE 5.8 mph - N/A Rain Light Rain
4:55 PM 52.9 °F - 48.4 °F 85% 29.76 in 10.0 mi East 6.9 mph - N/A Rain Light Rain
5:15 PM 52.7 °F - 49.1 °F 88% 29.74 in 10.0 mi ESE 5.8 mph - 0.01 in Rain Light Rain
5:35 PM 53.1 °F - 50.4 °F 91% 29.72 in 10.0 mi ESE 5.8 mph - 0.01 in Rain Rain
5:55 PM 53.6 °F - 51.8 °F 94% 29.70 in 10.0 mi SE 10.4 mph - 0.03 in Rain Light Rain
6:15 PM 55.8 °F - 53.6 °F 92% 29.68 in 10.0 mi SE 12.7 mph 18.4 mph 0.02 in Rain Light Rain
6:35 PM 56.8 °F - 55.0 °F 94% 29.66 in 10.0 mi SSE 10.4 mph 18.4 mph 0.02 in Rain Light Rain
6:55 PM 57.9 °F - 56.3 °F 94% 29.64 in 10.0 mi SSE 15.0 mph 21.9 mph 0.04 in Rain Light Rain
7:15 PM 58.1 °F - 56.8 °F 96% 29.61 in 10.0 mi SSE 13.8 mph 28.8 mph 0.01 in Rain Rain
7:35 PM 58.6 °F - 57.6 °F 96% 29.58 in 10.0 mi SSE 21.9 mph 29.9 mph 0.03 in Rain Light Rain
7:55 PM 59.7 °F - 58.5 °F 96% 29.59 in 10.0 mi South 19.6 mph 33.4 mph 0.03 in   Drizzle
8:15 PM 60.4 °F - 59.2 °F 96% 29.58 in 5.0 mi South 16.1 mph 29.9 mph 0.01 in Rain Light Rain
8:35 PM 60.3 °F - 59.4 °F 97% 29.59 in 3.0 mi SW 12.7 mph 27.6 mph 0.12 in Rain Heavy Rain
8:55 PM 59.9 °F - 59.5 °F 99% 29.59 in 7.0 mi SW 12.7 mph 17.3 mph 0.15 in Rain Rain
9:15 PM 59.9 °F - 58.5 °F 95% 29.59 in 10.0 mi WSW 15.0 mph 24.2 mph N/A   Overcast
9:35 PM 58.1 °F - 55.0 °F 90% 29.59 in 10.0 mi WSW 15.0 mph 27.6 mph N/A   Overcast
9:55 PM 56.5 °F - 51.3 °F 83% 29.59 in 10.0 mi WSW 18.4 mph 24.2 mph N/A   Overcast
10:15 PM 54.5 °F - 46.6 °F 75% 29.60 in 10.0 mi WSW 21.9 mph 29.9 mph N/A   Overcast
10:35 PM 52.9 °F - 46.4 °F 79% 29.60 in 10.0 mi WSW 8.1 mph 17.3 mph N/A   Overcast
10:55 PM 51.3 °F - 45.3 °F 80% 29.60 in 10.0 mi WSW 13.8 mph 21.9 mph N/A   Scattered Clouds
11:15 PM 50.4 °F - 45.1 °F 82% 29.60 in 10.0 mi WSW 12.7 mph 17.3 mph N/A   Clear
11:35 PM 49.6 °F - 44.6 °F 83% 29.60 in 10.0 mi SW 15.0 mph 21.9 mph N/A   Scattered Clouds
11:55 PM 49.1 °F - 43.7 °F 82% 29.61 in 10.0 mi WSW 11.5 mph 18.4 mph N/A   Scattered Clouds